Theta_e
288 288 286 286 285 284 283 282 281 280 280 279 278 277 276 275 275 274 274 275 276 278 279 279 282 282 284 284 285 286 285 287
287 287 286 285 284 283 282 281 280 279 278 278 276 275 274 274 273 272 272 273 274 276 277 278 281 281 283 283 284 285 285 285
287 286 285 284 283 282 281 280 279 278 277 275 275 274 273 272 272 272 272 272 273 274 276 278 280 281 282 283 284 284 285 285
286 285 284 283 281 281 280 278 277 276 275 275 274 273 272 271 271 271 272 272 273 274 275 277 280 280 281 281 283 284 285 284
286 284 283 282 281 280 279 277 276 275 275 274 272 271 271 271 271 271 271 272 273 273 274 276 279 280 280 281 281 283 284 284
286 284 282 281 280 279 277 276 275 274 274 272 271 271 271 271 271 271 271 272 272 273 273 275 277 279 280 280 281 282 283 284
286 284 281 280 279 278 276 275 274 274 273 272 271 271 271 271 270 271 271 271 271 272 272 273 275 278 280 280 280 281 281 282
286 284 282 281 280 278 275 274 273 274 273 272 271 271 271 270 270 270 271 271 271 272 272 272 274 277 279 278 278 279 280 281
285 283 281 281 279 276 274 273 273 273 272 271 271 271 271 270 270 270 271 271 271 272 272 272 273 277 278 277 277 278 278 280
284 281 281 281 278 275 273 272 272 273 272 271 271 271 271 271 270 270 271 271 271 271 271 271 272 275 277 277 276 276 276 277
281 282 281 278 276 273 272 272 272 272 272 271 271 271 271 270 270 270 271 271 271 270 270 270 271 274 275 276 275 276 275 275
280 279 279 276 274 273 272 272 273 272 272 271 271 271 271 271 270 270 271 270 270 270 270 270 271 272 274 275 274 275 274 274
276 275 276 274 273 272 272 272 272 272 271 271 271 271 270 270 270 270 270 270 270 270 269 270 271 271 273 274 274 274 274 273
274 272 273 272 273 272 272 272 272 272 271 271 271 271 270 270 270 270 270 269 269 269 269 269 271 272 273 273 273 273 273 273
272 270 269 271 272 273 272 272 272 271 271 271 270 270 270 270 270 270 270 270 270 270 269 270 271 272 273 273 271 271 272 271
272 270 269 271 272 272 272 272 271 271 271 270 270 270 270 270 270 270 270 271 270 271 270 270 271 273 273 272 270 271 270 269
271 271 270 271 272 272 272 272 271 271 270 270 270 270 270 269 269 269 270 270 271 271 271 271 271 273 272 271 269 269 268 268
271 271 271 271 272 272 271 271 271 272 271 270 270 270 270 269 269 269 269 269 268 269 270 270 270 272 271 270 268 267 266 265
272 272 271 271 271 271 271 271 271 271 271 270 270 269 269 269 269 268 268 268 269 268 268 268 269 270 269 269 269 268 266 264
272 271 271 271 271 271 271 271 270 270 270 270 269 269 269 268 268 268 268 267 268 268 269 268 268 268 268 268 268 266 266 265
Wind_Speed
20 20 16 13 10 7 5 5 6 8 11 13 16 18 20 22 24 24 25 25 24 23 24 26 25 28 28 29 29 26 28 26
19 21 18 15 11 9 4 3 6 8 11 14 17 18 19 21 22 23 23 22 21 21 22 23 24 27 29 27 28 27 28 27
20 23 20 17 13 10 5 2 4 8 11 12 13 15 19 21 22 22 22 21 19 19 20 21 21 26 27 26 27 27 27 28
19 19 22 18 15 11 6 2 3 6 8 10 13 16 18 20 21 20 20 20 20 19 19 20 19 23 23 23 26 25 25 26
14 19 23 21 17 11 6 1 2 4 7 9 12 15 17 18 19 19 19 20 20 20 19 17 17 21 26 24 25 23 23 25
15 19 22 23 17 13 8 3 2 4 6 8 10 12 14 17 18 18 18 18 19 20 20 17 15 21 22 24 20 23 22 22
18 22 24 25 21 15 10 7 5 4 6 7 9 13 15 17 19 19 20 21 20 21 22 20 14 19 20 22 19 19 22 24
19 26 26 30 25 19 13 10 8 6 6 7 10 13 15 17 19 21 23 23 23 22 22 22 18 19 20 20 18 19 18 22
24 26 28 30 24 19 16 13 10 8 7 7 9 12 15 16 19 20 23 24 24 23 21 23 20 19 20 20 21 21 19 19
30 33 35 32 26 22 19 15 12 10 8 7 9 12 14 16 18 19 21 23 22 21 21 23 20 20 20 22 23 22 23 19
35 37 37 32 28 25 22 18 15 13 10 9 9 12 13 14 16 17 18 19 20 20 20 22 21 19 20 21 23 22 25 23
37 40 40 35 30 27 24 20 17 15 12 10 10 12 12 12 14 15 17 18 20 22 23 23 22 22 22 20 21 21 22 22
32 35 38 35 32 29 25 21 18 16 13 10 11 10 10 11 12 14 17 19 20 20 22 24 26 20 23 22 21 18 19 21
33 35 36 34 32 30 26 24 21 18 14 11 10 9 8 8 9 13 15 18 17 15 18 23 28 26 23 24 23 19 18 18
32 29 30 33 30 27 28 25 22 20 16 12 10 9 8 6 7 9 12 15 15 14 16 20 26 25 26 25 26 23 21 22
29 29 30 35 30 27 29 27 24 20 18 14 11 8 5 5 5 7 9 11 11 14 16 19 22 24 25 27 26 24 22 16
26 28 32 35 32 30 29 28 26 23 19 16 13 10 6 4 4 3 4 7 8 9 12 13 15 20 22 24 22 21 19 18
30 32 36 38 35 31 30 28 26 25 22 19 14 11 8 5 2 5 5 6 7 11 11 12 14 17 19 21 21 20 19 23
34 35 37 38 36 32 30 28 25 22 20 17 15 12 8 4 2 3 7 11 12 11 11 12 13 14 16 18 22 28 26 22
34 34 36 37 35 33 31 29 26 23 20 17 14 10 7 5 3 3 5 8 12 13 10 11 13 13 14 16 21 23 24 22
Wind_Direction
154 160 159 161 153 135 104 65 30 18 12 357 348 343 341 342 342 339 336 338 346 355 2 6 12 15 16 14 8 360 1 3
159 165 164 160 157 140 123 62 25 5 2 350 346 348 352 355 356 353 348 345 346 354 358 5 9 12 15 8 7 4 359 1
159 163 165 160 155 148 142 83 14 356 359 358 360 2 1 1 2 359 359 -0 357 356 2 7 13 15 6 3 10 6 359 360
159 165 168 162 158 157 156 118 2 356 19 12 9 7 6 4 6 7 10 13 11 10 8 11 18 15 4 2 7 6 7 9
164 167 169 170 167 168 167 152 21 41 37 21 16 11 9 11 15 16 18 19 17 17 15 15 27 13 4 360 3 -0 4 15
170 166 163 168 172 177 175 166 132 83 54 31 23 21 20 23 25 26 28 28 23 19 21 24 22 8 2 358 1 4 2 4
170 166 167 173 177 178 179 169 156 110 69 43 37 34 32 31 30 32 34 33 30 28 25 28 23 5 5 2 0 3 7 6
176 171 172 181 181 180 175 167 158 120 83 54 47 44 39 38 37 39 40 39 36 34 28 25 25 8 6 6 9 7 7 9
169 167 169 180 176 172 170 166 158 131 104 76 61 54 48 44 43 44 43 39 34 34 28 22 24 12 9 6 11 14 10 11
170 165 175 174 174 169 165 169 159 137 120 100 79 64 57 53 47 44 42 38 38 36 28 21 22 14 13 8 8 5 4 10
164 171 171 171 172 167 169 171 159 145 135 118 96 78 66 57 50 44 44 40 40 40 32 26 27 20 10 6 6 359 356 358
166 167 174 171 171 170 171 176 159 152 143 130 111 88 73 66 56 48 49 45 42 41 36 31 29 20 12 9 4 357 352 351
154 165 171 172 172 172 176 170 162 156 146 138 117 102 87 73 62 52 49 44 35 30 29 30 25 14 12 9 3 355 351 347
158 161 171 175 178 173 175 171 165 160 152 145 128 115 96 76 61 53 45 41 30 22 18 11 19 14 8 6 1 355 348 344
154 158 167 178 180 183 175 172 169 161 156 150 142 125 115 98 68 50 43 32 21 19 12 4 7 4 3 7 4 0 357 342
161 165 170 177 180 182 180 175 169 165 164 163 152 142 131 105 68 36 32 18 3 11 8 6 357 1 5 4 2 359 358 0
165 166 172 177 180 184 184 178 172 169 173 174 167 163 148 119 95 68 25 12 15 11 5 6 5 4 6 6 8 10 10 31
170 173 176 180 183 184 183 182 181 178 175 176 177 178 166 148 65 20 38 28 21 11 13 10 5 8 8 9 14 22 22 36
174 178 181 184 186 184 184 184 184 183 182 181 180 181 178 176 123 15 358 358 6 19 10 6 7 9 9 8 17 25 29 27
176 180 184 185 187 185 186 186 185 185 186 188 190 188 197 209 265 308 339 345 346 357 9 9 13 9 11 15 21 14 17 18